Regional Weather Roundup
Issued by NWS Austin/San Antonio, TX

Home | Current Version | Previous Version | Text Only | Print | Product List | Glossary On
Versions: 1 2 3 4 5 6 7 8 9 10 11 12 13 14 15 16 17 18 19 20 21 22 23 24 25 26 27 28 29 30 31 32 33 34 35 36 37 38 39 40 41 42 43 44 45 46 47 48 49 50
570
ASUS44 KEWX 140610
RWREWX
SOUTH TEXAS REGIONAL WEATHER ROUNDUP
NATIONAL WEATHER SERVICE AUSTIN/SAN ANTONIO TX
1200 AM CST THU DEC 14 2017

NOTE: "FAIR" INDICATED FEW OR NO CLOUDS BELOW 12,000 FEET WITH NO
SIGNIFICANT WEATHER AND/OR OBSTRUCTIONS TO VISIBILITY.

* - THESE STATIONS ARE NOT NWS OR FAA STATIONS...AND ARE NOT SUBJECT
    TO NWS AND FAA QUALITY CONTROL.

TXZ171-172-183>190-140700-
TEXAS HILL COUNTRY AND EDWARDS PLATEAU

CITY           SKY/WX    TMP DP  RH WIND       PRES   REMARKS
JUNCTION       CLOUDY    45  35  68 CALM      29.95F
6HR MIN TEMP:  44; 6HR MAX TEMP:  57;

*LLANO         CLOUDY    41  36  81 CALM      29.97F
BURNET         CLOUDY    46  36  68 S3        29.96F
6HR MIN TEMP:  44; 6HR MAX TEMP:  56;

*HORSESHOE BAY CLOUDY    44  37  76 CALM      29.95F
6HR MIN TEMP:  42; 6HR MAX TEMP:  56;

*KERRVILLE     PTCLDY    42  36  76 CALM      29.96F
6HR MIN TEMP:  42; 6HR MAX TEMP:  51;

*FREDERICKSBRG CLOUDY    43  33  69 CALM      29.96F
6HR MIN TEMP:  39; 6HR MAX TEMP:  52;

*ROCKSPRINGS   NOT AVBL
*BOERNE STAGE  CLOUDY    50  34  53 SW3       29.97R
*CASTROVILLE   CLOUDY    49  37  63 W6        29.98F WCI  46
HONDO          MOCLDY    48  39  71 CALM      29.96F
6HR MIN TEMP:  48; 6HR MAX TEMP:  56;

*UVALDE        PTCLDY    42  38  87 CALM      29.96F
6HR MIN TEMP:  40; 6HR MAX TEMP:  54;

DEL RIO        CLOUDY    46  39  76 E5        29.94F WCI  44
6HR MIN TEMP:  46; 6HR MAX TEMP:  54;

LAUGHLIN AFB   MOCLDY    43  38  81 E3        29.94F
6HR MIN TEMP:  43; 6HR MAX TEMP:  53;

CARRIZO SPRGS  CLEAR     41  41 100 S5        29.95F WCI  38
*EAGLE PASS    CLEAR     46  39  76 SE6       29.94F WCI  43
$$

TXZ173-191>194-202-209-217>225-228-140700-
CENTRAL AND SOUTH CENTRAL TEXAS

CITY           SKY/WX    TMP DP  RH WIND       PRES   REMARKS
GEORGETOWN     PTCLDY    45  37  73 S9        29.95F WCI  40
6HR MIN TEMP:  44; 6HR MAX TEMP:  57;

AUSTIN/BERGSTM CLOUDY    43  40  89 S3        29.96F
6HR MIN TEMP:  39; 6HR MAX TEMP:  54;

AUSTIN/MABRY   PTCLDY    45  40  82 SW3       29.96F
6HR MIN TEMP:  44; 6HR MAX TEMP:  55;

*AUSTIN/EXEC   PTCLDY    46  37  71 SW7       29.96F WCI  43
*LAGO VISTA    CLOUDY    50  37  60 MISG      29.95S
6HR MIN TEMP:  50; 6HR MAX TEMP:  56;

SAN MARCOS     PTCLDY    45  37  73 CALM      29.97
6HR MIN TEMP:  42; 6HR MAX TEMP:  52;

NEW BRAUNFELS  CLOUDY    47  38  71 CALM      29.95S
6HR MIN TEMP:  46; 6HR MAX TEMP:  52;

RANDOLPH AFB   CLOUDY    52  37  56 CALM      29.95F
6HR MIN TEMP:  52; 6HR MAX TEMP:  55;

PT SAN ANTONIO CLOUDY    50  38  63 SW3       29.93F
6HR MIN TEMP:  49; 6HR MAX TEMP:  56;

SAN ANTONIO    CLOUDY    54  36  50 SW7       29.95F
6HR MIN TEMP:  52; 6HR MAX TEMP:  57;

STINSON FIELD  PTCLDY    50  39  66 CALM      29.94F
6HR MIN TEMP:  48; 6HR MAX TEMP:  57;

*LA GRANGE     PTCLDY    44  41  88 CALM      29.96R
6HR MIN TEMP:  44; 6HR MAX TEMP:  54;

*GIDDINGS      PTCLDY    46  37  70 CALM      29.97S
6HR MIN TEMP:  46; 6HR MAX TEMP:  53;

*GONZALES      PTCLDY    47  38  72 CALM      29.97S
6HR MIN TEMP:  46; 6HR MAX TEMP:  55;

$$

TXZ163>164-176>182-195>201-210>213-226-227-235-140700-
SOUTHEAST TEXAS

CITY           SKY/WX    TMP DP  RH WIND       PRES   REMARKS
COLLEGE STN    PTCLDY    46  37  71 CALM      29.96S
6HR MIN TEMP:  45; 6HR MAX TEMP:  53;

*BRYAN         PTCLDY    46  36  66 SW5       29.97S WCI  44
6HR MIN TEMP:  46; 6HR MAX TEMP:  52;

*CALDWELL      PTCLDY    46  37  69 SW8       29.96S WCI  42
6HR MIN TEMP:  45; 6HR MAX TEMP:  52;

*CROCKETT        N/A     37  34  87 CALM      29.97F
*BRENHAM       PTCLDY    48  38  68 SW3       29.97S
6HR MIN TEMP:  48; 6HR MAX TEMP:  55;

HUNTSVILLE     CLOUDY    48  36  63 S6        29.94F WCI  45
6HR MIN TEMP:  48; 6HR MAX TEMP:  51;

CONROE         PTCLDY    39  39 100 CALM      29.96F
6HR MIN TEMP:  38; 6HR MAX TEMP:  52;

HOUSTON BUSH   CLOUDY    47  39  74 CALM      29.96F
6HR MIN TEMP:  45; 6HR MAX TEMP:  53;

HOUSTON HOBBY  MOCLDY    47  39  74 CALM      29.97F
6HR MIN TEMP:  46; 6HR MAX TEMP:  53;

*HOUSTON SW AP PTCLDY    44  41  88 CALM      29.98F
6HR MIN TEMP:  41; 6HR MAX TEMP:  49;

PEARLAND       PTCLDY    45  41  86 CALM      29.99F
6HR MIN TEMP:  44; 6HR MAX TEMP:  50;

HOUSTON HOOKS  PTCLDY    46  39  76 CALM      29.96F
6HR MIN TEMP:  42; 6HR MAX TEMP:  50;

ELLINGTON FLD  MOCLDY    50  37  62 CALM      29.99F
SUGAR LAND     PTCLDY    48  39  71 S3        29.97F
6HR MIN TEMP:  46; 6HR MAX TEMP:  53;

*HOUSTON EXEC  NOT AVBL
*CLEVELAND MUN PTCLDY    38  37  94 CALM      29.98S
6HR MIN TEMP:  38; 6HR MAX TEMP:  44;

*WHARTON       CLOUDY    50  42  73 S6        29.98S WCI  48
6HR MIN TEMP:  46; 6HR MAX TEMP:  52;

*COLUMBUS      FAIR      44  40  86 CALM      29.99R
6HR MIN TEMP:  43; 6HR MAX TEMP:  51;

*EAGLE LAKE    PTCLDY    48  43  82 SW5       29.98R WCI  46
6HR MIN TEMP:  47; 6HR MAX TEMP:  51;

$$

TXZ214>216-236>238-140700-
THE UPPER TEXAS COAST

CITY           SKY/WX    TMP DP  RH WIND       PRES   REMARKS
*ORANGE        CLOUDY    42  42  99 CALM      29.99F
6HR MIN TEMP:  42; 6HR MAX TEMP:  49;

PORT ARTHUR    CLOUDY    44  41  89 SW3       29.97F
6HR MIN TEMP:  42; 6HR MAX TEMP:  46;

GALVESTON      MOCLDY    54  42  64 SW5       29.99F
6HR MIN TEMP:  52; 6HR MAX TEMP:  56;

ANGLETON       CLOUDY    47  40  76 CALM      29.97F
6HR MIN TEMP:  45; 6HR MAX TEMP:  52;

*BAY CITY      CLOUDY    48  43  82 S3        29.98F
PALACIOS       CLOUDY    55  52  89 SW5       29.98F
6HR MIN TEMP:  49; 6HR MAX TEMP:  55;

$$

TXZ229>234-239>247-140700-
TEXAS COASTAL BEND AND RIO GRANDE PLAINS

CITY           SKY/WX    TMP DP  RH WIND       PRES   REMARKS
VICTORIA       CLOUDY    52  44  74 S6        29.98F
6HR MIN TEMP:  49; 6HR MAX TEMP:  53;

*BEEVILLE      CLOUDY    52  46  78 CALM      29.98F
6HR MIN TEMP:  51; 6HR MAX TEMP:  56;

ROCKPORT       PTCLDY    53  48  83 S3        29.98F
6HR MIN TEMP:  50; 6HR MAX TEMP:  55;

*PORT ARANSAS  NOT AVBL
*PORT LAVACA   CLOUDY    51  46  83 S3        29.98F
6HR MIN TEMP:  49; 6HR MAX TEMP:  54;

*INGLESIDE     PTCLDY    56  50  80 CALM      29.98F
CORPUS CHRISTI CLOUDY    53  49  86 CALM      29.98F
6HR MIN TEMP:  51; 6HR MAX TEMP:  61;

CORPUS NAS     MOCLDY    56  50  80 S6        29.98F
6HR MIN TEMP:  53; 6HR MAX TEMP:  59;

*ROBSTOWN      PTCLDY    53  47  82 S7        29.98F
6HR MIN TEMP:  52; 6HR MAX TEMP:  58;

ALICE          CLOUDY    49  42  77 S3        29.97F
6HR MIN TEMP:  48; 6HR MAX TEMP:  56;

KINGSVILLE NAS CLOUDY    52  50  93 S6        29.97F
6HR MIN TEMP:  48; 6HR MAX TEMP:  62;

COTULLA        CLEAR     47  42  83 CALM      29.97F
6HR MIN TEMP:  47; 6HR MAX TEMP:  58;

*FAITH RANCH   PTCLDY    43  41  93 SE5       29.96F WCI  40
LAREDO         PTCLDY    53  41  63 MISG      29.97F
6HR MIN TEMP:  52; 6HR MAX TEMP:  59; 6HR PCP:  0.01;

$$

TXZ248>255-140700-
DEEP SOUTH TEXAS

CITY           SKY/WX    TMP DP  RH WIND       PRES   REMARKS
BROWNSVILLE    CLOUDY    57  54  89 CALM      30.00F
6HR MIN TEMP:  57; 6HR MAX TEMP:  64;

PORT ISABEL    CLOUDY    56  53  90 CALM      30.00S
6HR MIN



USA.gov is the U.S. government's official web portal to all federal, state and local government web resources and services.